Tracking 29606 objects as of 19-Sep-2024
HD Live streaming from Space Station
objects crossing your sky now

STARLINK-2602

Track STARLINK-2602 now!
10-day predictions
STARLINK-2602 is classified as:


NORAD ID: 48393
Int'l Code: 2021-038AS
Perigee: 553.1 km
Apogee: 555.6 km
Inclination: 53.1 °
Period: 95.6 minutes
Semi major axis: 6925 km
RCS: Unknown
Launch date: May 4, 2021
Source: United States (US)
Launch site: AIR FORCE EASTERN TEST RANGE (AFETR)
Your satellite tracking list
Your tracking list is empty




NASA's NSSDC Master Catalog

Two Line Element Set (TLE):
1 48393U 21038AS  24262.35628251  .00002567  00000-0  19119-3 0  9993
2 48393  53.0544 233.8002 0001746 107.6036 252.5144 15.06398976187530
Source of the keplerian elements: AFSPC